GW6759 Weather Reports


time (UTC)temp
C
wind
direction
speed
KPH
gust
KPH
rain 1hr
cm
rain 24hr
cm
rain mn
cm
humidity
%
barometer
mb
20260510184623 27 44 1.6 1.6 0.00 0.00 0.00 40 1015.2
20260510184119 27 182 1.6 1.6 0.00 0.00 0.00 38 1015.3
20260510183614 27 50 1.6 1.6 0.00 0.00 0.00 36 1015.3
20260510183109 28 119 0.0 0.0 0.00 0.00 0.00 37 1015.5
20260510182607 28 59 0.0 1.6 0.00 0.00 0.00 37 1015.3
20260510182102 28 135 0.0 0.0 0.00 0.00 0.00 34 1015.6
20260510181600 30 92 0.0 0.0 0.00 0.00 0.00 36 1015.6
20260510181056 29 58 0.0 1.6 0.00 0.00 0.00 38 1015.6
20260510180552 30 10 1.6 1.6 0.00 0.00 0.00 35 1015.5
20260510180050 30 329 0.0 0.0 0.00 0.00 0.00 36 1015.5
20260510175550 29 41 0.0 0.0 0.00 0.00 0.00 37 1015.8
20260510175046 27 187 1.6 1.6 0.00 0.00 0.00 37 1015.6
20260510174545 28 2 1.6 1.6 0.00 0.00 0.00 35 1015.9
20260510174042 28 233 3.2 4.8 0.00 0.00 0.00 33 1015.8
20260510173537 30 209 0.0 1.6 0.00 0.00 0.00 36 1015.9
20260510173034 30 30 0.0 1.6 0.00 0.00 0.00 38 1015.9
20260510172530 30 279 3.2 3.2 0.00 0.00 0.00 34 1015.9
20260510172026 30 27 1.6 1.6 0.00 0.00 0.00 35 1016.0
20260510171523 30 273 0.0 0.0 0.00 0.00 0.00 36 1016.1
20260510171020 29 187 1.6 3.2 0.00 0.00 0.00 38 1016.0
20260510170517 28 320 0.0 0.0 0.00 0.00 0.00 41 1015.9
20260510170014 28 214 3.2 3.2 0.00 0.00 0.00 37 1015.8
20260510165509 28 157 0.0 0.0 0.00 0.00 0.00 38 1015.8
20260510165006 28 159 1.6 1.6 0.00 0.00 0.00 40 1016.0
20260510164502 28 161 1.6 3.2 0.00 0.00 0.00 36 1016.2
20260510163958 28 132 0.0 1.6 0.00 0.00 0.00 41 1016.1
20260510163454 27 115 0.0 0.0 0.00 0.00 0.00 40 1016.1
20260510162949 27 145 1.6 3.2 0.00 0.00 0.00 38 1016.2
20260510162446 26 61 1.6 1.6 0.00 0.00 0.00 41 1016.2
20260510161943 27 211 1.6 3.2 0.00 0.00 0.00 41 1016.1
20260510161438 26 232 1.6 1.6 0.00 0.00 0.00 41 1016.2
20260510160936 28 114 0.0 1.6 0.00 0.00 0.00 39 1016.2
20260510160433 27 81 0.0 0.0 0.00 0.00 0.00 42 1016.2
20260510155931 27 61 0.0 0.0 0.00 0.00 0.00 40 1016.3
20260510155428 27 189 1.6 1.6 0.00 0.00 0.00 44 1016.4
20260510154925 26 126 0.0 0.0 0.00 0.00 0.00 48 1016.7
20260510154421 26 95 1.6 3.2 0.00 0.00 0.00 45 1016.6
20260510153914 27 357 1.6 3.2 0.00 0.00 0.00 45 1016.5
20260510153411 26 137 0.0 1.6 0.00 0.00 0.00 46 1016.6
20260510152907 26 86 0.0 0.0 0.00 0.00 0.00 48 1016.8
20260510152405 26 128 0.0 0.0 0.00 0.00 0.00 45 1016.8
20260510151901 28 127 0.0 0.0 0.00 0.00 0.00 46 1016.7
20260510151359 27 135 0.0 0.0 0.00 0.00 0.00 46 1016.6
20260510150855 28 106 0.0 0.0 0.00 0.00 0.00 49 1016.6
20260510150350 27 137 0.0 1.6 0.00 0.00 0.00 46 1016.4
20260510145847 27 85 0.0 0.0 0.00 0.00 0.00 48 1016.4
20260510145343 27 138 0.0 1.6 0.00 0.00 0.00 48 1016.4
20260510144840 26 78 0.0 0.0 0.00 0.00 0.00 53 1016.5
20260510144337 25 104 3.2 3.2 0.00 0.00 0.00 53 1016.4
20260510143836 25 47 1.6 1.6 0.00 0.00 0.00 52 1016.5
20260510143333 25 46 1.6 3.2 0.00 0.00 0.00 52 1016.4
20260510142830 25 86 0.0 0.0 0.00 0.00 0.00 56 1016.6
20260510142327 26 97 0.0 0.0 0.00 0.00 0.00 56 1016.3
20260510141824 25 94 0.0 0.0 0.00 0.00 0.00 56 1016.5
20260510141321 25 355 0.0 0.0 0.00 0.00 0.00 53 1016.5
20260510140819 27 91 0.0 0.0 0.00 0.00 0.00 50 1016.6
20260510140315 26 88 0.0 0.0 0.00 0.00 0.00 55 1016.6
20260510135813 25 81 0.0 0.0 0.00 0.00 0.00 56 1016.6
20260510135309 23 103 0.0 0.0 0.00 0.00 0.00 59 1016.7
20260510134807 25 62 0.0 1.6 0.00 0.00 0.00 59 1016.7
20260510134304 25 95 0.0 0.0 0.00 0.00 0.00 56 1016.5
20260510133800 24 10 0.0 1.6 0.00 0.00 0.00 59 1016.3
20260510133256 23 86 0.0 0.0 0.00 0.00 0.00 62 1016.6
20260510132751 25 112 0.0 0.0 0.00 0.00 0.00 61 1016.3
20260510132250 25 141 0.0 0.0 0.00 0.00 0.00 64 1016.5
20260510131746 25 101 0.0 0.0 0.00 0.00 0.00 64 1016.4
20260510131244 25 111 0.0 1.6 0.00 0.00 0.00 64 1016.6
20260510130740 25 96 0.0 0.0 0.00 0.00 0.00 65 1016.3
20260510130237 23 107 0.0 0.0 0.00 0.00 0.00 65 1016.3
20260510125734 23 105 0.0 0.0 0.00 0.00 0.00 69 1016.0
20260510125230 25 105 0.0 0.0 0.00 0.00 0.00 65 1016.0
20260510124726 23 132 0.0 0.0 0.00 0.00 0.00 69 1015.8
20260510124224 24 70 0.0 0.0 0.00 0.00 0.00 69 1016.0
20260510123719 23 70 0.0 0.0 0.00 0.00 0.00 71 1015.9
20260510123216 23 70 0.0 0.0 0.00 0.00 0.00 72 1016.0
20260510122712 22 70 0.0 0.0 0.00 0.00 0.00 74 1015.6
20260510122208 21 70 0.0 0.0 0.00 0.00 0.00 78 1015.8
20260510121704 21 70 0.0 0.0 0.00 0.00 0.00 79 1015.9
20260510121202 20 70 0.0 0.0 0.00 0.00 0.00 82 1015.6
20260510120659 19 70 0.0 0.0 0.00 0.00 0.00 86 1015.6
20260510120156 18 70 0.0 0.0 0.00 0.00 0.00 87 1015.8
20260510115651 18 70 0.0 0.0 0.00 0.00 0.00 89 1015.5
20260510115150 17 70 0.0 0.0 0.00 0.00 0.00 91 1015.5
20260510114645 17 70 0.0 0.0 0.00 0.00 0.00 93 1015.3
20260510114142 17 70 0.0 0.0 0.00 0.00 0.00 95 1015.3
20260510113637 16 71 0.0 0.0 0.00 0.00 0.00 96 1015.4
20260510113134 16 71 0.0 0.0 0.00 0.00 0.00 96 1015.1
20260510112631 16 73 0.0 0.0 0.00 0.00 0.00 97 1015.2
20260510112128 16 73 0.0 0.0 0.00 0.00 0.00 97 1014.9
20260510111624 15 73 0.0 0.0 0.00 0.00 0.00 97 1014.8
20260510111120 15 73 0.0 0.0 0.00 0.00 0.00 97 1014.8
20260510110616 15 73 0.0 0.0 0.00 0.00 0.00 97 1014.6
20260510110113 15 73 0.0 0.0 0.00 0.00 0.00 97 1014.7
20260510105608 15 72 0.0 0.0 0.00 0.00 0.00 97 1014.8
20260510105103 15 72 0.0 0.0 0.00 0.00 0.00 97 1014.5
20260510104600 15 72 0.0 0.0 0.00 0.00 0.00 97 1014.5
20260510104057 15 72 0.0 0.0 0.00 0.00 0.00 97 1014.5
20260510103554 15 72 0.0 0.0 0.00 0.00 0.00 97 1014.5
20260510103050 15 72 0.0 0.0 0.00 0.00 0.00 97 1014.4
20260510102545 15 72 0.0 0.0 0.00 0.00 0.00 97 1014.3
20260510102041 15 72 0.0 0.0 0.00 0.00 0.00 97 1014.2
20260510101539 15 72 0.0 0.0 0.00 0.00 0.00 97 1014.1
20260510101038 15 72 0.0 0.0 0.00 0.00 0.00 97 1013.9
20260510100533 15 72 0.0 0.0 0.00 0.00 0.00 97 1013.8
20260510100031 15 72 0.0 0.0 0.00 0.00 0.00 97 1014.0
20260510095527 15 72 0.0 0.0 0.00 0.00 0.00 97 1013.8
20260510095026 15 72 0.0 0.0 0.00 0.00 0.00 97 1013.8
20260510094520 15 72 0.0 0.0 0.00 0.00 0.00 96 1013.7
20260510094017 15 72 0.0 0.0 0.00 0.00 0.00 96 1013.7
20260510093512 15 72 0.0 0.0 0.00 0.00 0.00 96 1013.4
20260510093009 15 72 0.0 0.0 0.00 0.00 0.00 96 1013.4
20260510092506 15 72 0.0 0.0 0.00 0.00 0.00 96 1013.3
20260510092006 15 72 0.0 0.0 0.00 0.00 0.00 96 1013.4
20260510091503 15 73 0.0 0.0 0.00 0.00 0.00 96 1013.4
20260510090959 15 73 0.0 0.0 0.00 0.00 0.00 96 1013.3
20260510090456 15 73 0.0 0.0 0.00 0.00 0.00 96 1013.3
20260510085951 15 73 0.0 0.0 0.00 0.00 0.00 96 1013.1
20260510085447 15 73 0.0 0.0 0.00 0.00 0.00 96 1013.1
20260510084942 15 73 0.0 0.0 0.00 0.00 0.00 96 1013.1
20260510084440 15 73 0.0 0.0 0.00 0.00 0.00 96 1013.2
20260510083937 15 73 0.0 0.0 0.00 0.00 0.00 96 1013.3
20260510083433 15 73 0.0 0.0 0.00 0.00 0.00 96 1013.2
20260510082928 15 73 0.0 0.0 0.00 0.00 0.00 96 1013.0
20260510082426 15 73 0.0 0.0 0.00 0.00 0.00 96 1013.0
20260510081925 15 73 0.0 0.0 0.00 0.00 0.00 96 1013.1
20260510081421 15 73 0.0 0.0 0.00 0.00 0.00 96 1012.9
20260510080918 15 73 0.0 0.0 0.00 0.00 0.00 96 1013.0
20260510080417 15 73 0.0 0.0 0.00 0.00 0.00 96 1012.9
20260510075914 15 73 0.0 0.0 0.00 0.00 0.00 96 1013.1
20260510075412 15 73 0.0 0.0 0.00 0.00 0.00 95 1012.8
20260510074908 15 73 0.0 0.0 0.00 0.00 0.00 95 1012.9
20260510074405 15 73 0.0 0.0 0.00 0.00 0.00 95 1012.8
20260510073902 15 73 0.0 0.0 0.00 0.00 0.00 95 1012.9
20260510073357 15 73 0.0 0.0 0.00 0.00 0.00 95 1012.9
20260510072853 15 73 0.0 0.0 0.00 0.00 0.00 95 1012.8
20260510072351 15 73 0.0 0.0 0.00 0.00 0.00 95 1012.7
20260510071846 15 73 0.0 0.0 0.00 0.00 0.00 95 1012.6
20260510071343 15 73 0.0 0.0 0.00 0.00 0.00 95 1012.7
20260510070842 15 73 0.0 0.0 0.00 0.00 0.00 95 1012.7
20260510070338 15 73 0.0 0.0 0.00 0.00 0.00 95 1012.7
20260510065833 15 73 0.0 0.0 0.00 0.00 0.00 95 1012.8
20260510065330 16 73 0.0 0.0 0.00 0.00 0.00 95 1012.9
20260510064827 16 73 0.0 0.0 0.00 0.00 0.00 95 1012.9
20260510064325 16 73 0.0 0.0 0.00 0.00 0.00 95 1012.9
20260510063820 16 73 0.0 0.0 0.00 0.00 0.00 95 1012.9
20260510063317 16 73 0.0 0.0 0.00 0.00 0.00 95 1012.9
20260510062814 16 74 0.0 0.0 0.00 0.00 0.00 95 1012.8
20260510062309 16 73 0.0 0.0 0.00 0.00 0.00 94 1012.7
20260510061805 16 74 0.0 0.0 0.00 0.00 0.00 94 1012.7
20260510061302 16 74 0.0 0.0 0.00 0.00 0.00 94 1012.6
20260510060758 16 74 0.0 0.0 0.00 0.00 0.00 94 1012.7
20260510060255 16 19 0.0 0.0 0.00 0.00 0.00 94 1012.9
20260510055752 16 19 0.0 0.0 0.00 0.00 0.00 95 1012.9
20260510055250 16 19 0.0 0.0 0.00 0.00 0.00 95 1013.0
20260510054750 16 19 0.0 0.0 0.00 0.00 0.00 95 1012.9
20260510054246 16 19 0.0 0.0 0.00 0.00 0.00 95 1013.0
20260510053745 16 19 0.0 0.0 0.00 0.00 0.00 95 1013.0
20260510053242 16 19 0.0 0.0 0.00 0.00 0.00 95 1013.1
20260510052737 16 19 0.0 0.0 0.00 0.00 0.00 94 1013.1
20260510052234 16 19 0.0 0.0 0.00 0.00 0.00 95 1013.2
20260510051730 16 20 0.0 0.0 0.00 0.00 0.00 95 1013.3
20260510051227 16 19 0.0 0.0 0.00 0.00 0.00 95 1013.4
20260510050723 16 19 0.0 0.0 0.00 0.00 0.00 95 1013.3
20260510050221 16 19 0.0 0.0 0.00 0.00 0.00 95 1013.2
20260510045717 16 20 0.0 0.0 0.00 0.00 0.00 95 1013.2
20260510045214 16 20 0.0 0.0 0.00 0.00 0.00 95 1013.3
20260510044710 16 19 0.0 0.0 0.00 0.00 0.00 95 1013.3
20260510044208 16 19 0.0 0.0 0.00 0.00 0.00 95 1013.5
20260510043703 16 19 0.0 0.0 0.00 0.00 0.00 95 1013.3
20260510043200 16 19 0.0 0.0 0.00 0.00 0.00 95 1013.3
20260510042657 16 20 0.0 0.0 0.00 0.00 0.00 95 1013.3
20260510042153 16 20 0.0 0.0 0.00 0.00 0.00 95 1013.4
20260510041651 16 20 0.0 0.0 0.00 0.00 0.00 95 1013.3
20260510041148 16 20 0.0 0.0 0.00 0.00 0.00 95 1013.3
20260510040645 16 19 0.0 0.0 0.00 0.00 0.00 95 1013.4
20260510040142 16 19 0.0 0.0 0.00 0.00 0.00 95 1013.2
20260510035637 16 19 0.0 0.0 0.00 0.00 0.00 94 1013.2
20260510035132 16 19 0.0 0.0 0.00 0.00 0.00 94 1013.2
20260510034630 16 19 0.0 0.0 0.00 0.00 0.00 94 1013.2
20260510034126 16 19 0.0 0.0 0.00 0.00 0.00 94 1013.0
20260510033623 16 20 0.0 0.0 0.00 0.00 0.00 94 1013.2
20260510033121 16 19 0.0 0.0 0.00 0.00 0.00 94 1013.2
20260510032617 16 19 0.0 0.0 0.00 0.00 0.00 94 1013.1
20260510032112 16 19 0.0 0.0 0.00 0.00 0.00 94 1013.1
20260510031607 16 19 0.0 0.0 0.00 0.00 0.00 94 1012.9
20260510031104 16 19 0.0 0.0 0.00 0.00 0.00 93 1013.0
20260510030559 16 19 0.0 0.0 0.00 0.00 0.00 93 1012.9
20260510030057 16 19 0.0 0.0 0.00 0.00 0.00 93 1012.8
20260510025554 16 19 0.0 0.0 0.00 0.00 0.00 93 1013.0
20260510025052 16 19 0.0 0.0 0.00 0.00 0.00 93 1012.9
20260510024548 16 19 0.0 0.0 0.00 0.00 0.00 93 1013.0
20260510024044 16 19 0.0 0.0 0.00 0.00 0.00 93 1012.9
20260510023540 16 19 0.0 0.0 0.00 0.00 0.00 93 1013.1
20260510023038 16 19 0.0 0.0 0.00 0.00 0.00 92 1012.8
20260510022537 16 19 0.0 0.0 0.00 0.00 0.00 92 1012.8
20260510022032 16 19 0.0 0.0 0.00 0.00 0.00 92 1012.8
20260510021529 17 19 0.0 0.0 0.00 0.00 0.00 92 1012.8
20260510021027 17 19 0.0 0.0 0.00 0.00 0.00 92 1012.6
20260510020526 17 19 0.0 0.0 0.00 0.00 0.00 92 1012.6
20260510020022 17 19 0.0 0.0 0.00 0.00 0.00 92 1012.6
20260510015518 17 19 0.0 0.0 0.00 0.00 0.00 92 1013.0
20260510015014 17 19 0.0 0.0 0.00 0.00 0.00 92 1012.8
20260510014511 17 19 0.0 0.0 0.00 0.00 0.00 91 1012.8
20260510014008 17 19 0.0 0.0 0.00 0.00 0.00 91 1012.5
20260510013502 17 19 0.0 0.0 0.00 0.00 0.00 91 1012.2
20260510012958 17 19 0.0 0.0 0.00 0.00 0.00 90 1012.4
20260510012453 17 19 0.0 0.0 0.00 0.00 0.00 90 1012.2
20260510011948 17 19 0.0 0.0 0.00 0.00 0.00 90 1012.0
20260510011443 17 19 0.0 0.0 0.00 0.00 0.00 90 1012.1
20260510010939 17 19 0.0 0.0 0.00 0.00 0.00 89 1011.9
20260510010437 17 19 0.0 0.0 0.00 0.00 0.00 89 1011.8
20260510005934 17 19 0.0 0.0 0.00 0.00 0.00 88 1012.1
20260510005429 17 19 0.0 0.0 0.00 0.00 0.00 88 1012.0
20260510004927 18 19 0.0 0.0 0.00 0.00 0.00 87 1011.9
20260510004424 18 19 0.0 0.0 0.00 0.00 0.00 86 1012.0
20260510003922 18 18 0.0 0.0 0.00 0.00 0.00 86 1011.8
20260510003419 18 18 0.0 0.0 0.00 0.00 0.00 86 1011.6
20260510002918 18 18 0.0 0.0 0.00 0.00 0.00 85 1011.6
20260510002415 18 19 0.0 0.0 0.00 0.00 0.00 85 1011.5
20260510001912 18 19 0.0 0.0 0.00 0.00 0.00 84 1011.7
20260510001410 19 15 0.0 0.0 0.00 0.00 0.00 83 1011.8
20260510000906 19 15 0.0 0.0 0.00 0.00 0.00 82 1011.7
20260510000403 20 15 0.0 0.0 0.00 0.00 0.00 81 1011.6
20260509235859 20 15 0.0 0.0 0.00 0.00 0.00 80 1011.6
20260509235356 20 15 0.0 0.0 0.00 0.00 0.00 79 1011.7
20260509234852 20 15 0.0 0.0 0.00 0.00 0.00 77 1011.7
20260509234349 20 15 0.0 0.0 0.00 0.00 0.00 77 1011.5
20260509233848 20 15 0.0 0.0 0.00 0.00 0.00 76 1011.5
20260509233345 21 15 0.0 0.0 0.00 0.00 0.00 76 1011.2
20260509232840 21 14 0.0 0.0 0.00 0.00 0.00 75 1011.2
20260509232339 21 14 0.0 0.0 0.00 0.00 0.00 76 1011.2
20260509231834 21 15 0.0 0.0 0.00 0.00 0.00 73 1011.4
20260509231331 21 115 0.0 0.0 0.00 0.00 0.00 73 1011.2
20260509230829 21 36 0.0 0.0 0.00 0.00 0.00 73 1011.2
20260509230326 21 35 0.0 0.0 0.00 0.00 0.00 73 1011.1
20260509225820 21 66 0.0 0.0 0.00 0.00 0.00 73 1011.1
20260509225318 21 39 0.0 1.6 0.00 0.00 0.00 72 1011.1
20260509224814 22 27 0.0 0.0 0.00 0.00 0.00 72 1010.7
20260509224310 22 27 0.0 0.0 0.00 0.00 0.00 71 1010.8
20260509223807 22 50 0.0 0.0 0.00 0.00 0.00 70 1010.9
20260509223304 22 349 0.0 0.0 0.00 0.00 0.00 71 1010.9
20260509222801 22 45 0.0 0.0 0.00 0.00 0.00 70 1011.0
20260509222256 22 147 0.0 0.0 0.00 0.00 0.00 70 1011.0
20260509221752 22 34 0.0 0.0 0.00 0.00 0.00 71 1010.8
20260509221249 22 72 0.0 0.0 0.00 0.00 0.00 70 1011.1
20260509220745 22 307 0.0 0.0 0.00 0.00 0.00 70 1011.4
20260509220241 22 79 0.0 0.0 0.00 0.00 0.00 70 1011.0
20260509215736 22 50 0.0 0.0 0.00 0.00 0.00 69 1011.1
20260509215234 22 58 0.0 0.0 0.00 0.00 0.00 70 1011.1
20260509214731 22 113 0.0 0.0 0.00 0.00 0.00 70 1011.2
20260509214227 22 186 0.0 0.0 0.00 0.00 0.00 69 1011.2
20260509213725 22 35 0.0 0.0 0.00 0.00 0.00 69 1011.0
20260509213220 22 49 0.0 0.0 0.00 0.00 0.00 69 1011.0
20260509212718 22 53 0.0 0.0 0.00 0.00 0.00 69 1011.1
20260509212214 22 153 0.0 0.0 0.00 0.00 0.00 69 1010.9
20260509211710 22 77 0.0 1.6 0.00 0.00 0.00 70 1010.9
20260509211207 22 60 0.0 0.0 0.00 0.00 0.00 69 1010.8
20260509210704 22 41 0.0 1.6 0.00 0.00 0.00 70 1010.7
20260509210201 22 4 0.0 0.0 0.00 0.00 0.00 69 1010.8
20260509205701 23 34 1.6 1.6 0.00 0.00 0.00 69 1010.7
20260509205201 22 94 0.0 0.0 0.00 0.00 0.00 69 1010.7
20260509204657 22 54 1.6 1.6 0.00 0.00 0.00 68 1010.7
20260509204153 22 109 0.0 0.0 0.00 0.00 0.00 69 1010.9
20260509203649 22 80 0.0 0.0 0.00 0.00 0.00 69 1011.0
20260509203148 22 97 0.0 0.0 0.00 0.00 0.00 69 1011.0
20260509202643 22 57 0.0 0.0 0.00 0.00 0.00 69 1010.9
20260509202138 22 53 0.0 0.0 0.00 0.00 0.00 69 1011.0
20260509201634 22 68 0.0 0.0 0.00 0.00 0.00 70 1011.1
20260509201131 22 44 0.0 1.6 0.00 0.00 0.00 71 1011.0
20260509200627 22 63 0.0 0.0 0.00 0.00 0.00 69 1010.9
20260509200123 22 298 0.0 0.0 0.00 0.00 0.00 68 1011.0
20260509195619 22 79 0.0 0.0 0.00 0.00 0.00 69 1011.2
20260509195113 21 358 1.6 1.6 0.00 0.00 0.00 70 1011.3
20260509194613 21 39 1.6 1.6 0.00 0.00 0.00 70 1011.3
20260509194111 21 31 0.0 0.0 0.00 0.00 0.00 71 1011.5
20260509193606 21 77 0.0 0.0 0.00 0.00 0.00 68 1011.5
20260509193102 21 89 0.0 0.0 0.00 0.00 0.00 68 1011.5
20260509192559 21 203 1.6 1.6 0.00 0.00 0.00 67 1011.5
20260509192054 22 246 0.0 0.0 0.00 0.00 0.00 68 1011.6
20260509191555 22 51 0.0 0.0 0.00 0.00 0.00 68 1011.7
20260509191051 21 31 0.0 1.6 0.00 0.00 0.00 68 1011.7
20260509190548 21 297 0.0 1.6 0.00 0.00 0.00 68 1011.7
20260509190046 21 55 1.6 1.6 0.00 0.00 0.00 67 1011.7
20260509185543 22 274 1.6 1.6 0.00 0.00 0.00 65 1011.7
20260509185039 22 278 0.0 1.6 0.00 0.00 0.00 63 1011.4